Regional Weather Roundup
Issued by NWS

Home | Current Version | Previous Version | Text Only | Print | Product List | Glossary Off
Versions: 1 2 3 4 5 6 7 8 9 10 11 12 13 14 15 16 17 18 19 20 21 22 23 24 25 26 27 28 29 30 31 32 33 34 35 36 37 38 39 40 41 42 43 44 45 46 47 48 49 50

000
ASUS45 KSLC 302210
RWRUT

UTAH REGIONAL WEATHER ROUNDUP
NATIONAL WEATHER SERVICE SALT LAKE CITY UT
400 PM MDT THU JUL 30 2015

UTZ001>011-023>025-302300-

NORTHERN UTAH

CITY           SKY/WX    TMP DP  RH WIND       PRES   REMARKS
BRIGHAM CITY   SUNNY     90  13   6 SW3       30.25F
HILL AFB       SUNNY     89  24   9 N10       30.29F
LOGAN          SUNNY     88  24  10 VRB3      30.27F
OGDEN          SUNNY     91  24   9 N9        30.26F
PROVO AIRPORT  SUNNY     88  39  18 VRB6      30.25F
SALT LAKE CITY MOSUNNY   92  22   8 NW10      30.23F
VERNAL         SUNNY     88   6   4 VRB5      30.27F
WENDOVER       SUNNY     91  27   9 E6        30.25F
HEBER CITY     SUNNY     90  18   7 N3        30.32F
WEST JORDAN    SUNNY     90  34  13 N12G17    30.27F

$$

UTZ012>022-026-027-302300-

SOUTHERN/CENTRAL UTAH

CITY           SKY/WX    TMP DP  RH WIND       PRES   REMARKS
BLANDING       PTSUNNY   85  44  24 NW13      30.36F
BRYCE CANYON   PTSUNNY   83  30  14 VRB3      30.44F
CEDAR CITY     PTSUNNY   91  24   9 VRB3      30.25F
DELTA          SUNNY     94  22   7 N7        30.23F
HANKSVILLE     SUNNY     97  25   7 NE5       30.20F HX  90
MILFORD        SUNNY     97  35  11 N8G23     30.21F HX  92
MOAB/CYNLANDS  SUNNY     96  23   7 W10       30.17F HX  90
PRICE          SUNNY     93  11   5 N16G24    30.29F
ST GEORGE      CLEAR    100  45  15 NW9       30.04F HX  96
KANAB          PTSUNNY   90  46  22 E6        30.25F

$$

REGIONAL REPORTS     COLORADO/ARIZONA

CITY           SKY/WX    TMP DP  RH WIND       PRES   REMARKS
CRAIG, CO      SUNNY     91  21   8 N7        30.34F
GRAND JUNCTION SUNNY     92  27   9 W12       30.20F
RIFLE          SUNNY     93  10   4 NE3       30.25F
MONTROSE       SUNNY     91  30  11 W15       30.28F
CORTEZ         PTSUNNY   81  47  30 E22G30    30.30F
PAGE, AZ       MOSUNNY   93  48  21 E5        30.17F
GRAND CANYON   CLOUDY    77  44  30 NE12      30.39F
KINGMAN        CLOUDY    83  57  41 SE28G37   30.12R
FLAGSTAFF      CLOUDY    72  52  49 E9        30.41F

$$

REGIONAL REPORTS    NEVADA/IDAHO/WYOMING

CITY           SKY/WX    TMP DP  RH WIND       PRES   REMARKS
LAS VEGAS, NV  PTSUNNY  103  46  14 E5        29.95F HX  99
ELY            SUNNY     90  20   7 VRB3      30.32F
ELKO           SUNNY     93  18   6 VRB3      30.27F
POCATELLO, ID  SUNNY     89  23   9 W5        30.29F
BURLEY         SUNNY     90  32  12 NW7       30.23F
EVANSTON, WY   SUNNY     82  20  10 N7        30.44F
ROCK SPRINGS   SUNNY     82  16   8 N8        30.40F
KEMMERER       SUNNY     81  14   8 W6        30.46F

$$


USA.gov is the U.S. government's official web portal to all federal, state and local government web resources and services.